Погода в Александровке 2-ой

Россия / Тамбовская область     51°48′10″N   41°47′08″E
темп.,
°C
ветер,
м/с
пор.,
м/с
влажн.,
%
обл.,
%
осадки,
мм/ч
давл.,
гПа
погр.,
м
14 мая, пт
пт1400:00+14вюв3376100 0.0 101731
03:00+14вюв348499 0.0 101747
06:00+15вюв35926 0.0 1017131
09:00+21вюв577291 0.0 1016531
12:00+24юв685686 0.0 10161317
15:00+25юв5954100 0.0 10151378
18:00+24вюв367097 0.0 1014181
21:00+19юв488195 0.0 1013117
15 мая, сб
сб1500:00+17юв4983100 0.0 1013139
03:00+16ююв41186100 0.0 1013189
06:00+16ююв5127872 0.0 1013266
09:00+20ю71161100 0.0 1014508
12:00+23ю785278 0.0 10141072
15:00+25ю6105480 0.0 10131502
18:00+23ююз366789 0.0 1013312
21:00+18ююз22867 0.3 101412
16 мая, вс
вс1600:00+17сз229178 0.1 101415
03:00+16ссв3383100 0.1 101535
06:00+17св358968 1.2 1015130
09:00+22всв4575100 1.6 1014555
12:00+24ююв564811 0.0 1015954
15:00+25ю56435 0.0 10141226
18:00+24юв246210 0.0 1014114
21:00+18в337066 0.0 101430
17 мая, пн
пн1700:00+18в4867100 0.0 1013111
03:00+16юв487073 0.0 1013101
06:00+17вюв48685 0.0 1013136
09:00+21юв610515 0.0 1013386
12:00+26юв69465 0.0 1013698
15:00+27юв69499 0.0 10121189
18:00+24вюв5116286 0.0 1012365
21:00+19вюв515680 0.0 1012264
18 мая, вт
вт1800:00+18юв617510 0.0 1012320
03:00+15вюв5125420 0.0 1011174
06:00+15юв5126712 0.0 1011190
09:00+22ююв6115166 0.0 1011463
12:00+25юв6945100 0.0 1011705
15:00+25ю4752100 0.0 10111140
18:00+23юз356650 0.0 1011227
21:00+18зсз498182 0.0 1012215